Printer-friendly version

IAU Minor Planet Center

Minor Planet Center

MPEC 2006-A35 : 2006 AQ3

The following Minor Planet Electronic Circular may be linked-to from your own Web pages, but must not otherwise be redistributed electronically.


Read MPEC 2006-A34 Read MPEC 2006-A36


M.P.E.C. 2006-A35                                Issued 2006 Jan. 8, 16:57 UT

     The Minor Planet Electronic Circulars contain information on unusual
         minor planets and routine data on comets.  They are published
   on behalf of Commission 20 of the International Astronomical Union by the
          Minor Planet Center, Smithsonian Astrophysical Observatory,
                          Cambridge, MA 02138, U.S.A.

                  Supported in part by the Brinson Foundation
                  Supported in part by the TABASGO Foundation
             Prepared using the Tamkin Foundation Computer Network

                              MPC@CFA.HARVARD.EDU
          URL http://cfa-www.harvard.edu/iau/mpc.html  ISSN 1523-6714

                                   2006 AQ3

Observations:
     K06A03Q* C2006 01 06.39874 08 41 14.89 +15 23 17.6          21.7 V EA035G96
     K06A03Q  C2006 01 06.40450 08 41 14.49 +15 23 02.2          21.0 V EA035G96
     K06A03Q  C2006 01 06.41024 08 41 14.06 +15 22 46.3          21.0 V EA035G96
     K06A03Q  C2006 01 06.41599 08 41 13.59 +15 22 30.7          21.0 V EA035G96
     K06A03Q  C2006 01 07.37108 08 40 07.39 +14 38 20.7          21.3 V EA035G96
     K06A03Q  C2006 01 07.37909 08 40 06.70 +14 37 58.0          21.0 V EA035G96
     K06A03Q  C2006 01 07.38707 08 40 06.09 +14 37 35.2          21.0 V EA035G96
     K06A03Q  C2006 01 07.39504 08 40 05.48 +14 37 12.5          20.6 V EA035G96
     K06A03Q  C2006 01 08.38683 08 38 51.03 +13 49 05.1          20.6 V EA035G96
     K06A03Q  C2006 01 08.39383 08 38 50.42 +13 48 44.0          20.8 V EA035G96
     K06A03Q  C2006 01 08.40083 08 38 49.81 +13 48 23.5          20.4 V EA035G96
     K06A03Q  C2006 01 08.40785 08 38 49.16 +13 48 02.3          20.9 V EA035G96

Observer details:
G96 Mt. Lemmon Survey.  Observer E. J. Christensen.  Measurers E. C. Beshore,
    E. J. Christensen, G. J. Garradd, A. D. Grauer, R. E. Hill, R. A. Kowalski,
    S. M. Larson, R. H. McNaught.  1.5-m reflector + CCD.

Orbital elements:
2006 AQ3                                                 Earth MOID = 0.2315 AU
Epoch 2006 Jan. 5.0 TT = JDT 2453740.5                  MPC
M 339.77308              (2000.0)            P               Q
n   0.24636336     Peri.  268.68596     -0.86731469     +0.33604593
a   2.5201050      Node   290.84537     -0.12422855     -0.86050267
e   0.6470579      Incl.   23.13647     -0.48200881     -0.38289462
P   4.00           H   21.2           G   0.15
From 12 observations 2006 Jan. 6-8.

Ephemeris:
2006 AQ3                 a,e,i = 2.52, 0.65, 23                  q = 0.8895
Date    TT    R. A. (2000) Decl.     Delta      r     Elong.  Phase     V
2006 01 05    08 42.73   +16 24.5    0.466    1.421   155.6    16.6    21.2
2006 01 15    08 28.07   +07 21.9    0.357    1.329   162.9    12.6    20.3
2006 01 25    08 01.78   -07 00.2    0.279    1.240   153.1    21.1    19.9
2006 02 04    07 19.89   -26 43.5    0.241    1.153   129.3    41.4    20.0
2006 02 14    06 17.92   -46 15.7    0.245    1.073   104.0    63.2    20.5
2006 02 24    04 51.14   -59 26.5    0.279    1.003    84.7    79.3    21.2
2006 03 06    03 04.48   -65 10.1    0.326    0.946    72.4    88.4    21.8

Gareth V. Williams           (C) Copyright 2006 MPC           M.P.E.C. 2006-A35

Read MPEC 2006-A34 Read MPEC 2006-A36


Our Web policy. Index to the CBAT/MPC/ICQ pages.


Valid HTML 4.01!